owner,sensor,date,latitude,longitude,air_temperature,qcFlag 
WAVCIS,ioos:station:WAVCIS:CSI03:1,2013-03-01T00:00:00Z,29.4412,-92.0613,9.76,11111222 
WAVCIS,ioos:station:WAVCIS:CSI03:1,2013-03-01T01:00:00Z,29.4412,-92.0613,9.81,11111222 
WAVCIS,ioos:station:WAVCIS:CSI03:1,2013-03-01T02:00:00Z,29.4412,-92.0613,10.14,11111222 
WAVCIS,ioos:station:WAVCIS:CSI03:1,2013-03-01T03:00:00Z,29.4412,-92.0613,10.69,11111222 
WAVCIS,ioos:station:WAVCIS:CSI03:1,2013-03-01T04:00:00Z,29.4412,-92.0613,11.06,11111222 
WAVCIS,ioos:station:WAVCIS:CSI03:1,2013-03-01T05:00:00Z,29.4412,-92.0613,11.33,11111222 
WAVCIS,ioos:station:WAVCIS:CSI03:1,2013-03-01T06:00:00Z,29.4412,-92.0613,11.35,11111222 
WAVCIS,ioos:station:WAVCIS:CSI03:1,2013-03-01T07:00:00Z,29.4412,-92.0613,11.45,11111222 
WAVCIS,ioos:station:WAVCIS:CSI03:1,2013-03-01T08:00:00Z,29.4412,-92.0613,11.55,11111222 
WAVCIS,ioos:station:WAVCIS:CSI03:1,2013-03-01T09:00:00Z,29.4412,-92.0613,11.51,11111222 
WAVCIS,ioos:station:WAVCIS:CSI03:1,2013-03-01T10:00:00Z,29.4412,-92.0613,11.31,11111222 
WAVCIS,ioos:station:WAVCIS:CSI03:1,2013-03-01T11:00:00Z,29.4412,-92.0613,10.98,11111222 
WAVCIS,ioos:station:WAVCIS:CSI03:1,2013-03-01T12:00:00Z,29.4412,-92.0613,11.04,11111222 
WAVCIS,ioos:station:WAVCIS:CSI03:1,2013-03-01T13:00:00Z,29.4412,-92.0613,10.82,11111222 
WAVCIS,ioos:station:WAVCIS:CSI03:1,2013-03-01T14:00:00Z,29.4412,-92.0613,10.9,11111222 
WAVCIS,ioos:station:WAVCIS:CSI03:1,2013-03-01T15:00:00Z,29.4412,-92.0613,9.36,11111222 
WAVCIS,ioos:station:WAVCIS:CSI03:1,2013-03-01T16:00:00Z,29.4412,-92.0613,9.7,11111222 
WAVCIS,ioos:station:WAVCIS:CSI03:1,2013-03-01T17:00:00Z,29.4412,-92.0613,11.13,11111222 
WAVCIS,ioos:station:WAVCIS:CSI03:1,2013-03-01T18:00:00Z,29.4412,-92.0613,11.57,11111222 
WAVCIS,ioos:station:WAVCIS:CSI03:1,2013-03-01T19:00:00Z,29.4412,-92.0613,12.15,11111222 
WAVCIS,ioos:station:WAVCIS:CSI03:1,2013-03-01T20:00:00Z,29.4412,-92.0613,12.23,11111222 
WAVCIS,ioos:station:WAVCIS:CSI03:1,2013-03-01T21:00:00Z,29.4412,-92.0613,13.21,11111222 
WAVCIS,ioos:station:WAVCIS:CSI03:1,2013-03-01T22:00:00Z,29.4412,-92.0613,13.56,11111222 
WAVCIS,ioos:station:WAVCIS:CSI03:1,2013-03-01T23:00:00Z,29.4412,-92.0613,14.15,11111222 
WAVCIS,ioos:station:WAVCIS:CSI03:1,2013-03-02T00:00:00Z,29.4412,-92.0613,14.17,11111222 
WAVCIS,ioos:station:WAVCIS:CSI03:1,2013-03-02T01:00:00Z,29.4412,-92.0613,13.91,11111222 
WAVCIS,ioos:station:WAVCIS:CSI03:1,2013-03-02T02:00:00Z,29.4412,-92.0613,13.29,11111222 
WAVCIS,ioos:station:WAVCIS:CSI03:1,2013-03-02T03:00:00Z,29.4412,-92.0613,13.0,11111222 
WAVCIS,ioos:station:WAVCIS:CSI03:1,2013-03-02T04:00:00Z,29.4412,-92.0613,12.1,11111222 
WAVCIS,ioos:station:WAVCIS:CSI03:1,2013-03-02T05:00:00Z,29.4412,-92.0613,11.64,11111222 
WAVCIS,ioos:station:WAVCIS:CSI03:1,2013-03-02T06:00:00Z,29.4412,-92.0613,11.44,11111222 
WAVCIS,ioos:station:WAVCIS:CSI03:1,2013-03-02T07:00:00Z,29.4412,-92.0613,11.28,11111222 
WAVCIS,ioos:station:WAVCIS:CSI03:1,2013-03-02T08:00:00Z,29.4412,-92.0613,11.19,11111222 
WAVCIS,ioos:station:WAVCIS:CSI03:1,2013-03-02T09:00:00Z,29.4412,-92.0613,11.18,11111222 
WAVCIS,ioos:station:WAVCIS:CSI03:1,2013-03-02T10:00:00Z,29.4412,-92.0613,10.54,11111222 
WAVCIS,ioos:station:WAVCIS:CSI03:1,2013-03-02T11:00:00Z,29.4412,-92.0613,10.01,11111222 
WAVCIS,ioos:station:WAVCIS:CSI03:1,2013-03-02T12:00:00Z,29.4412,-92.0613,8.68,11111222 
WAVCIS,ioos:station:WAVCIS:CSI03:1,2013-03-02T13:00:00Z,29.4412,-92.0613,8.04,11111222 
WAVCIS,ioos:station:WAVCIS:CSI03:1,2013-03-02T14:00:00Z,29.4412,-92.0613,7.6,11111222 
WAVCIS,ioos:station:WAVCIS:CSI03:1,2013-03-02T15:00:00Z,29.4412,-92.0613,6.696,11111222 
WAVCIS,ioos:station:WAVCIS:CSI03:1,2013-03-02T16:00:00Z,29.4412,-92.0613,6.81,11111222 
WAVCIS,ioos:station:WAVCIS:CSI03:1,2013-03-02T17:00:00Z,29.4412,-92.0613,6.89,11111222 
WAVCIS,ioos:station:WAVCIS:CSI03:1,2013-03-02T18:00:00Z,29.4412,-92.0613,6.85,11111222 
WAVCIS,ioos:station:WAVCIS:CSI03:1,2013-03-02T19:00:00Z,29.4412,-92.0613,7.07,11111222 
WAVCIS,ioos:station:WAVCIS:CSI03:1,2013-03-02T20:00:00Z,29.4412,-92.0613,7.3,11111222 
WAVCIS,ioos:station:WAVCIS:CSI03:1,2013-03-02T21:00:00Z,29.4412,-92.0613,7.34,11111222 
WAVCIS,ioos:station:WAVCIS:CSI03:1,2013-03-02T22:00:00Z,29.4412,-92.0613,7.68,11111222 
WAVCIS,ioos:station:WAVCIS:CSI03:1,2013-03-02T23:00:00Z,29.4412,-92.0613,7.84,11111222 
WAVCIS,ioos:station:WAVCIS:CSI03:1,2013-03-03T00:00:00Z,29.4412,-92.0613,7.89,11111222 
WAVCIS,ioos:station:WAVCIS:CSI03:1,2013-03-03T01:00:00Z,29.4412,-92.0613,7.82,11111222 
WAVCIS,ioos:station:WAVCIS:CSI03:1,2013-03-03T02:00:00Z,29.4412,-92.0613,7.81,11111222 
WAVCIS,ioos:station:WAVCIS:CSI03:1,2013-03-03T03:00:00Z,29.4412,-92.0613,7.8,11111222 
WAVCIS,ioos:station:WAVCIS:CSI03:1,2013-03-03T04:00:00Z,29.4412,-92.0613,7.88,11111222 
WAVCIS,ioos:station:WAVCIS:CSI03:1,2013-03-03T05:00:00Z,29.4412,-92.0613,7.1,11111222 
WAVCIS,ioos:station:WAVCIS:CSI03:1,2013-03-03T06:00:00Z,29.4412,-92.0613,6.89,11111222 
WAVCIS,ioos:station:WAVCIS:CSI03:1,2013-03-03T07:00:00Z,29.4412,-92.0613,6.672,11111222 
WAVCIS,ioos:station:WAVCIS:CSI03:1,2013-03-03T08:00:00Z,29.4412,-92.0613,6.612,11111222 
WAVCIS,ioos:station:WAVCIS:CSI03:1,2013-03-03T09:00:00Z,29.4412,-92.0613,6.95,11111222 
WAVCIS,ioos:station:WAVCIS:CSI03:1,2013-03-03T10:00:00Z,29.4412,-92.0613,6.97,11111222 
WAVCIS,ioos:station:WAVCIS:CSI03:1,2013-03-03T11:00:00Z,29.4412,-92.0613,6.83,11111222 
WAVCIS,ioos:station:WAVCIS:CSI03:1,2013-03-03T12:00:00Z,29.4412,-92.0613,6.98,11111222 
WAVCIS,ioos:station:WAVCIS:CSI03:1,2013-03-03T13:00:00Z,29.4412,-92.0613,7.46,11111222 
WAVCIS,ioos:station:WAVCIS:CSI03:1,2013-03-03T14:00:00Z,29.4412,-92.0613,8.37,11111222 
WAVCIS,ioos:station:WAVCIS:CSI03:1,2013-03-03T15:00:00Z,29.4412,-92.0613,8.85,11111222 
WAVCIS,ioos:station:WAVCIS:CSI03:1,2013-03-03T16:00:00Z,29.4412,-92.0613,9.78,11111222 
WAVCIS,ioos:station:WAVCIS:CSI03:1,2013-03-03T17:00:00Z,29.4412,-92.0613,11.04,11111222 
WAVCIS,ioos:station:WAVCIS:CSI03:1,2013-03-03T18:00:00Z,29.4412,-92.0613,10.73,11111222 
WAVCIS,ioos:station:WAVCIS:CSI03:1,2013-03-03T19:00:00Z,29.4412,-92.0613,11.44,11111222 
WAVCIS,ioos:station:WAVCIS:CSI03:1,2013-03-03T20:00:00Z,29.4412,-92.0613,12.02,11111222 
WAVCIS,ioos:station:WAVCIS:CSI03:1,2013-03-03T21:00:00Z,29.4412,-92.0613,12.51,11111222 
WAVCIS,ioos:station:WAVCIS:CSI03:1,2013-03-03T22:00:00Z,29.4412,-92.0613,12.19,11111222 
WAVCIS,ioos:station:WAVCIS:CSI03:1,2013-03-03T23:00:00Z,29.4412,-92.0613,12.54,11111222 
WAVCIS,ioos:station:WAVCIS:CSI03:1,2013-03-04T00:00:00Z,29.4412,-92.0613,12.03,11111222 
WAVCIS,ioos:station:WAVCIS:CSI03:1,2013-03-04T01:00:00Z,29.4412,-92.0613,11.66,11111222 
WAVCIS,ioos:station:WAVCIS:CSI03:1,2013-03-04T02:00:00Z,29.4412,-92.0613,12.07,11111222 
WAVCIS,ioos:station:WAVCIS:CSI03:1,2013-03-04T03:00:00Z,29.4412,-92.0613,13.16,11111222 
WAVCIS,ioos:station:WAVCIS:CSI03:1,2013-03-04T04:00:00Z,29.4412,-92.0613,12.91,11111222 
WAVCIS,ioos:station:WAVCIS:CSI03:1,2013-03-04T05:00:00Z,29.4412,-92.0613,13.17,11111222 
WAVCIS,ioos:station:WAVCIS:CSI03:1,2013-03-04T06:00:00Z,29.4412,-92.0613,13.46,11111222 
WAVCIS,ioos:station:WAVCIS:CSI03:1,2013-03-04T07:00:00Z,29.4412,-92.0613,14.14,11111222 
WAVCIS,ioos:station:WAVCIS:CSI03:1,2013-03-04T08:00:00Z,29.4412,-92.0613,14.55,11111222 
WAVCIS,ioos:station:WAVCIS:CSI03:1,2013-03-04T09:00:00Z,29.4412,-92.0613,15.03,11111222 
WAVCIS,ioos:station:WAVCIS:CSI03:1,2013-03-04T10:00:00Z,29.4412,-92.0613,15.34,11111222 
WAVCIS,ioos:station:WAVCIS:CSI03:1,2013-03-04T11:00:00Z,29.4412,-92.0613,15.44,11111222 
WAVCIS,ioos:station:WAVCIS:CSI03:1,2013-03-04T12:00:00Z,29.4412,-92.0613,15.63,11111222 
WAVCIS,ioos:station:WAVCIS:CSI03:1,2013-03-04T13:00:00Z,29.4412,-92.0613,15.8,11111222 
WAVCIS,ioos:station:WAVCIS:CSI03:1,2013-03-04T14:00:00Z,29.4412,-92.0613,16.54,11111222 
WAVCIS,ioos:station:WAVCIS:CSI03:1,2013-03-04T15:00:00Z,29.4412,-92.0613,17.04,11111222 
WAVCIS,ioos:station:WAVCIS:CSI03:1,2013-03-04T16:00:00Z,29.4412,-92.0613,17.32,11111222 
WAVCIS,ioos:station:WAVCIS:CSI03:1,2013-03-04T17:00:00Z,29.4412,-92.0613,17.56,11111222 
WAVCIS,ioos:station:WAVCIS:CSI03:1,2013-03-04T18:00:00Z,29.4412,-92.0613,17.45,11111222 
WAVCIS,ioos:station:WAVCIS:CSI03:1,2013-03-04T19:00:00Z,29.4412,-92.0613,17.52,11111222 
WAVCIS,ioos:station:WAVCIS:CSI03:1,2013-03-04T20:00:00Z,29.4412,-92.0613,17.61,11111222 
WAVCIS,ioos:station:WAVCIS:CSI03:1,2013-03-04T21:00:00Z,29.4412,-92.0613,17.67,11111222 
WAVCIS,ioos:station:WAVCIS:CSI03:1,2013-03-04T22:00:00Z,29.4412,-92.0613,17.61,11111222 
WAVCIS,ioos:station:WAVCIS:CSI03:1,2013-03-04T23:00:00Z,29.4412,-92.0613,17.6,11111222 
WAVCIS,ioos:station:WAVCIS:CSI03:1,2013-03-05T00:00:00Z,29.4412,-92.0613,17.63,11111222 
WAVCIS,ioos:station:WAVCIS:CSI03:1,2013-03-05T01:00:00Z,29.4412,-92.0613,17.62,11111222 
WAVCIS,ioos:station:WAVCIS:CSI03:1,2013-03-05T02:00:00Z,29.4412,-92.0613,18.0,11111222 
WAVCIS,ioos:station:WAVCIS:CSI03:1,2013-03-05T03:00:00Z,29.4412,-92.0613,18.15,11111222 
WAVCIS,ioos:station:WAVCIS:CSI03:1,2013-03-05T04:00:00Z,29.4412,-92.0613,18.61,11111222 
WAVCIS,ioos:station:WAVCIS:CSI03:1,2013-03-05T05:00:00Z,29.4412,-92.0613,18.35,11111222 
WAVCIS,ioos:station:WAVCIS:CSI03:1,2013-03-05T06:00:00Z,29.4412,-92.0613,18.57,11111222 
WAVCIS,ioos:station:WAVCIS:CSI03:1,2013-03-05T07:00:00Z,29.4412,-92.0613,18.47,11111222 
WAVCIS,ioos:station:WAVCIS:CSI03:1,2013-03-05T08:00:00Z,29.4412,-92.0613,19.03,11111222 
WAVCIS,ioos:station:WAVCIS:CSI03:1,2013-03-05T09:00:00Z,29.4412,-92.0613,18.65,11111222 
WAVCIS,ioos:station:WAVCIS:CSI03:1,2013-03-05T10:00:00Z,29.4412,-92.0613,18.79,11111222 
WAVCIS,ioos:station:WAVCIS:CSI03:1,2013-03-05T11:00:00Z,29.4412,-92.0613,18.91,11111222 
WAVCIS,ioos:station:WAVCIS:CSI03:1,2013-03-05T12:00:00Z,29.4412,-92.0613,19.34,11111222 
WAVCIS,ioos:station:WAVCIS:CSI03:1,2013-03-05T13:00:00Z,29.4412,-92.0613,18.13,11111222 
WAVCIS,ioos:station:WAVCIS:CSI03:1,2013-03-05T14:00:00Z,29.4412,-92.0613,17.61,11111222 
WAVCIS,ioos:station:WAVCIS:CSI03:1,2013-03-05T15:00:00Z,29.4412,-92.0613,18.36,11111222 
WAVCIS,ioos:station:WAVCIS:CSI03:1,2013-03-05T16:00:00Z,29.4412,-92.0613,18.52,11111222 
WAVCIS,ioos:station:WAVCIS:CSI03:1,2013-03-05T17:00:00Z,29.4412,-92.0613,18.43,11111222 
WAVCIS,ioos:station:WAVCIS:CSI03:1,2013-03-05T18:00:00Z,29.4412,-92.0613,18.43,11111222 
WAVCIS,ioos:station:WAVCIS:CSI03:1,2013-03-05T19:00:00Z,29.4412,-92.0613,18.06,11111222 
WAVCIS,ioos:station:WAVCIS:CSI03:1,2013-03-05T20:00:00Z,29.4412,-92.0613,18.93,11111222 
WAVCIS,ioos:station:WAVCIS:CSI03:1,2013-03-05T21:00:00Z,29.4412,-92.0613,20.22,11111222 
WAVCIS,ioos:station:WAVCIS:CSI03:1,2013-03-05T22:00:00Z,29.4412,-92.0613,19.78,11111222 
WAVCIS,ioos:station:WAVCIS:CSI03:1,2013-03-05T23:00:00Z,29.4412,-92.0613,19.46,11111222 
WAVCIS,ioos:station:WAVCIS:CSI03:1,2013-03-06T00:00:00Z,29.4412,-92.0613,18.51,11111222 
WAVCIS,ioos:station:WAVCIS:CSI03:1,2013-03-06T01:00:00Z,29.4412,-92.0613,17.92,11111222 
WAVCIS,ioos:station:WAVCIS:CSI03:1,2013-03-06T02:00:00Z,29.4412,-92.0613,17.12,11111222 
WAVCIS,ioos:station:WAVCIS:CSI03:1,2013-03-06T03:00:00Z,29.4412,-92.0613,16.42,11111222 
WAVCIS,ioos:station:WAVCIS:CSI03:1,2013-03-06T04:00:00Z,29.4412,-92.0613,15.01,11111222 
WAVCIS,ioos:station:WAVCIS:CSI03:1,2013-03-06T05:00:00Z,29.4412,-92.0613,14.11,11111222 
WAVCIS,ioos:station:WAVCIS:CSI03:1,2013-03-06T06:00:00Z,29.4412,-92.0613,13.6,11111222 
WAVCIS,ioos:station:WAVCIS:CSI03:1,2013-03-06T07:00:00Z,29.4412,-92.0613,12.9,11111222 
WAVCIS,ioos:station:WAVCIS:CSI03:1,2013-03-06T08:00:00Z,29.4412,-92.0613,12.01,11111222 
WAVCIS,ioos:station:WAVCIS:CSI03:1,2013-03-06T09:00:00Z,29.4412,-92.0613,11.2,11111222 
WAVCIS,ioos:station:WAVCIS:CSI03:1,2013-03-06T10:00:00Z,29.4412,-92.0613,10.74,11111222 
WAVCIS,ioos:station:WAVCIS:CSI03:1,2013-03-06T11:00:00Z,29.4412,-92.0613,10.03,11111222 
WAVCIS,ioos:station:WAVCIS:CSI03:1,2013-03-06T12:00:00Z,29.4412,-92.0613,9.35,11111222 
WAVCIS,ioos:station:WAVCIS:CSI03:1,2013-03-06T13:00:00Z,29.4412,-92.0613,9.16,11111222 
WAVCIS,ioos:station:WAVCIS:CSI03:1,2013-03-06T14:00:00Z,29.4412,-92.0613,8.94,11111222 
WAVCIS,ioos:station:WAVCIS:CSI03:1,2013-03-06T15:00:00Z,29.4412,-92.0613,8.98,11111222 
WAVCIS,ioos:station:WAVCIS:CSI03:1,2013-03-06T16:00:00Z,29.4412,-92.0613,9.47,11111222 
WAVCIS,ioos:station:WAVCIS:CSI03:1,2013-03-06T17:00:00Z,29.4412,-92.0613,10.12,11111222 
WAVCIS,ioos:station:WAVCIS:CSI03:1,2013-03-06T18:00:00Z,29.4412,-92.0613,10.96,11111222 
WAVCIS,ioos:station:WAVCIS:CSI03:1,2013-03-06T19:00:00Z,29.4412,-92.0613,11.96,11111222 
WAVCIS,ioos:station:WAVCIS:CSI03:1,2013-03-06T20:00:00Z,29.4412,-92.0613,13.38,11111222 
WAVCIS,ioos:station:WAVCIS:CSI03:1,2013-03-06T21:00:00Z,29.4412,-92.0613,14.84,11111222 
WAVCIS,ioos:station:WAVCIS:CSI03:1,2013-03-06T22:00:00Z,29.4412,-92.0613,17.08,11111222 
WAVCIS,ioos:station:WAVCIS:CSI03:1,2013-03-06T23:00:00Z,29.4412,-92.0613,15.16,11111222 
WAVCIS,ioos:station:WAVCIS:CSI03:1,2013-03-07T00:00:00Z,29.4412,-92.0613,15.3,11111222 
WAVCIS,ioos:station:WAVCIS:CSI03:1,2013-03-07T01:00:00Z,29.4412,-92.0613,14.8,11111222 
WAVCIS,ioos:station:WAVCIS:CSI03:1,2013-03-07T02:00:00Z,29.4412,-92.0613,14.68,11111222 
WAVCIS,ioos:station:WAVCIS:CSI03:1,2013-03-07T03:00:00Z,29.4412,-92.0613,14.47,11111222 
WAVCIS,ioos:station:WAVCIS:CSI03:1,2013-03-07T04:00:00Z,29.4412,-92.0613,13.91,11111222 
WAVCIS,ioos:station:WAVCIS:CSI03:1,2013-03-07T05:00:00Z,29.4412,-92.0613,13.69,11111222 
WAVCIS,ioos:station:WAVCIS:CSI03:1,2013-03-07T06:00:00Z,29.4412,-92.0613,13.16,11111222 
WAVCIS,ioos:station:WAVCIS:CSI03:1,2013-03-07T07:00:00Z,29.4412,-92.0613,12.26,11111222 
WAVCIS,ioos:station:WAVCIS:CSI03:1,2013-03-07T08:00:00Z,29.4412,-92.0613,11.68,11111222 
WAVCIS,ioos:station:WAVCIS:CSI03:1,2013-03-07T09:00:00Z,29.4412,-92.0613,11.03,11111222 
WAVCIS,ioos:station:WAVCIS:CSI03:1,2013-03-07T10:00:00Z,29.4412,-92.0613,10.53,11111222 
WAVCIS,ioos:station:WAVCIS:CSI03:1,2013-03-07T11:00:00Z,29.4412,-92.0613,9.95,11111222 
WAVCIS,ioos:station:WAVCIS:CSI03:1,2013-03-07T12:00:00Z,29.4412,-92.0613,10.03,11111222 
WAVCIS,ioos:station:WAVCIS:CSI03:1,2013-03-07T13:00:00Z,29.4412,-92.0613,10.45,11111222 
WAVCIS,ioos:station:WAVCIS:CSI03:1,2013-03-07T14:00:00Z,29.4412,-92.0613,10.4,11111222 
WAVCIS,ioos:station:WAVCIS:CSI03:1,2013-03-07T15:00:00Z,29.4412,-92.0613,10.4,11111222 
WAVCIS,ioos:station:WAVCIS:CSI03:1,2013-03-07T16:00:00Z,29.4412,-92.0613,10.41,11111222 
WAVCIS,ioos:station:WAVCIS:CSI03:1,2013-03-07T17:00:00Z,29.4412,-92.0613,11.03,11111222 
WAVCIS,ioos:station:WAVCIS:CSI03:1,2013-03-07T18:00:00Z,29.4412,-92.0613,11.47,11111222 
WAVCIS,ioos:station:WAVCIS:CSI03:1,2013-03-07T19:00:00Z,29.4412,-92.0613,12.23,11111222 
WAVCIS,ioos:station:WAVCIS:CSI03:1,2013-03-07T20:00:00Z,29.4412,-92.0613,12.93,11111222 
WAVCIS,ioos:station:WAVCIS:CSI03:1,2013-03-07T21:00:00Z,29.4412,-92.0613,13.37,11111222 
WAVCIS,ioos:station:WAVCIS:CSI03:1,2013-03-07T22:00:00Z,29.4412,-92.0613,14.18,11111222 
WAVCIS,ioos:station:WAVCIS:CSI03:1,2013-03-07T23:00:00Z,29.4412,-92.0613,14.15,11111222 
WAVCIS,ioos:station:WAVCIS:CSI03:1,2013-03-08T00:00:00Z,29.4412,-92.0613,14.69,11111222 
WAVCIS,ioos:station:WAVCIS:CSI03:1,2013-03-08T01:00:00Z,29.4412,-92.0613,14.15,11111222 
WAVCIS,ioos:station:WAVCIS:CSI03:1,2013-03-08T02:00:00Z,29.4412,-92.0613,14.27,11111222 
WAVCIS,ioos:station:WAVCIS:CSI03:1,2013-03-08T03:00:00Z,29.4412,-92.0613,14.4,11111222 
WAVCIS,ioos:station:WAVCIS:CSI03:1,2013-03-08T04:00:00Z,29.4412,-92.0613,14.7,11111222 
WAVCIS,ioos:station:WAVCIS:CSI03:1,2013-03-08T05:00:00Z,29.4412,-92.0613,16.24,11111222 
WAVCIS,ioos:station:WAVCIS:CSI03:1,2013-03-08T06:00:00Z,29.4412,-92.0613,14.82,11111222 
WAVCIS,ioos:station:WAVCIS:CSI03:1,2013-03-08T07:00:00Z,29.4412,-92.0613,14.59,11111222 
WAVCIS,ioos:station:WAVCIS:CSI03:1,2013-03-08T08:00:00Z,29.4412,-92.0613,14.59,11111222 
WAVCIS,ioos:station:WAVCIS:CSI03:1,2013-03-08T09:00:00Z,29.4412,-92.0613,14.52,11111222 
WAVCIS,ioos:station:WAVCIS:CSI03:1,2013-03-08T10:00:00Z,29.4412,-92.0613,13.5,11111222 
WAVCIS,ioos:station:WAVCIS:CSI03:1,2013-03-08T11:00:00Z,29.4412,-92.0613,13.44,11111222 
WAVCIS,ioos:station:WAVCIS:CSI03:1,2013-03-08T12:00:00Z,29.4412,-92.0613,13.68,11111222 
WAVCIS,ioos:station:WAVCIS:CSI03:1,2013-03-08T13:00:00Z,29.4412,-92.0613,13.38,11111222 
WAVCIS,ioos:station:WAVCIS:CSI03:1,2013-03-08T14:00:00Z,29.4412,-92.0613,13.42,11111222 
WAVCIS,ioos:station:WAVCIS:CSI03:1,2013-03-08T15:00:00Z,29.4412,-92.0613,13.57,11111222 
WAVCIS,ioos:station:WAVCIS:CSI03:1,2013-03-08T16:00:00Z,29.4412,-92.0613,13.66,11111222 
WAVCIS,ioos:station:WAVCIS:CSI03:1,2013-03-08T17:00:00Z,29.4412,-92.0613,13.68,11111222 
WAVCIS,ioos:station:WAVCIS:CSI03:1,2013-03-08T18:00:00Z,29.4412,-92.0613,13.75,11111222 
WAVCIS,ioos:station:WAVCIS:CSI03:1,2013-03-08T19:00:00Z,29.4412,-92.0613,14.25,11111222 
WAVCIS,ioos:station:WAVCIS:CSI03:1,2013-03-08T20:00:00Z,29.4412,-92.0613,14.79,11111222 
WAVCIS,ioos:station:WAVCIS:CSI03:1,2013-03-08T21:00:00Z,29.4412,-92.0613,15.22,11111222 
WAVCIS,ioos:station:WAVCIS:CSI03:1,2013-03-08T22:00:00Z,29.4412,-92.0613,15.26,11111222 
WAVCIS,ioos:station:WAVCIS:CSI03:1,2013-03-08T23:00:00Z,29.4412,-92.0613,15.21,11111222 
WAVCIS,ioos:station:WAVCIS:CSI03:1,2013-03-09T00:00:00Z,29.4412,-92.0613,15.05,11111222 
WAVCIS,ioos:station:WAVCIS:CSI03:1,2013-03-09T01:00:00Z,29.4412,-92.0613,15.3,11111222 
WAVCIS,ioos:station:WAVCIS:CSI03:1,2013-03-09T02:00:00Z,29.4412,-92.0613,15.53,11111222 
WAVCIS,ioos:station:WAVCIS:CSI03:1,2013-03-09T03:00:00Z,29.4412,-92.0613,15.54,11111222 
WAVCIS,ioos:station:WAVCIS:CSI03:1,2013-03-09T04:00:00Z,29.4412,-92.0613,15.63,11111222 
WAVCIS,ioos:station:WAVCIS:CSI03:1,2013-03-09T05:00:00Z,29.4412,-92.0613,15.54,11111222 
WAVCIS,ioos:station:WAVCIS:CSI03:1,2013-03-09T06:00:00Z,29.4412,-92.0613,15.59,11111222 
WAVCIS,ioos:station:WAVCIS:CSI03:1,2013-03-09T07:00:00Z,29.4412,-92.0613,15.72,11111222 
WAVCIS,ioos:station:WAVCIS:CSI03:1,2013-03-09T08:00:00Z,29.4412,-92.0613,15.8,11111222 
WAVCIS,ioos:station:WAVCIS:CSI03:1,2013-03-09T09:00:00Z,29.4412,-92.0613,15.8,11111222 
WAVCIS,ioos:station:WAVCIS:CSI03:1,2013-03-09T10:00:00Z,29.4412,-92.0613,15.91,11111222 
WAVCIS,ioos:station:WAVCIS:CSI03:1,2013-03-09T11:00:00Z,29.4412,-92.0613,15.95,11111222 
WAVCIS,ioos:station:WAVCIS:CSI03:1,2013-03-09T12:00:00Z,29.4412,-92.0613,15.81,11111222 
WAVCIS,ioos:station:WAVCIS:CSI03:1,2013-03-09T13:00:00Z,29.4412,-92.0613,15.19,11111222 
WAVCIS,ioos:station:WAVCIS:CSI03:1,2013-03-09T14:00:00Z,29.4412,-92.0613,15.08,11111222 
WAVCIS,ioos:station:WAVCIS:CSI03:1,2013-03-09T15:00:00Z,29.4412,-92.0613,15.41,11111222 
WAVCIS,ioos:station:WAVCIS:CSI03:1,2013-03-09T16:00:00Z,29.4412,-92.0613,15.34,11111222 
WAVCIS,ioos:station:WAVCIS:CSI03:1,2013-03-09T17:00:00Z,29.4412,-92.0613,15.87,11111222 
WAVCIS,ioos:station:WAVCIS:CSI03:1,2013-03-09T18:00:00Z,29.4412,-92.0613,16.31,11111222 
WAVCIS,ioos:station:WAVCIS:CSI03:1,2013-03-09T19:00:00Z,29.4412,-92.0613,16.37,11111222 
WAVCIS,ioos:station:WAVCIS:CSI03:1,2013-03-09T20:00:00Z,29.4412,-92.0613,17.03,11111222 
WAVCIS,ioos:station:WAVCIS:CSI03:1,2013-03-09T21:00:00Z,29.4412,-92.0613,17.21,11111222 
WAVCIS,ioos:station:WAVCIS:CSI03:1,2013-03-09T22:00:00Z,29.4412,-92.0613,17.27,11111222 
WAVCIS,ioos:station:WAVCIS:CSI03:1,2013-03-09T23:00:00Z,29.4412,-92.0613,17.26,11111222 
WAVCIS,ioos:station:WAVCIS:CSI03:1,2013-03-10T00:00:00Z,29.4412,-92.0613,17.32,11111222 
WAVCIS,ioos:station:WAVCIS:CSI03:1,2013-03-10T01:00:00Z,29.4412,-92.0613,17.41,11111222 
WAVCIS,ioos:station:WAVCIS:CSI03:1,2013-03-10T02:00:00Z,29.4412,-92.0613,17.48,11111222 
WAVCIS,ioos:station:WAVCIS:CSI03:1,2013-03-10T03:00:00Z,29.4412,-92.0613,17.69,11111222 
WAVCIS,ioos:station:WAVCIS:CSI03:1,2013-03-10T04:00:00Z,29.4412,-92.0613,17.72,11111222 
WAVCIS,ioos:station:WAVCIS:CSI03:1,2013-03-10T05:00:00Z,29.4412,-92.0613,17.81,11111222 
WAVCIS,ioos:station:WAVCIS:CSI03:1,2013-03-10T06:00:00Z,29.4412,-92.0613,17.81,11111222 
WAVCIS,ioos:station:WAVCIS:CSI03:1,2013-03-10T07:00:00Z,29.4412,-92.0613,17.93,11111222 
WAVCIS,ioos:station:WAVCIS:CSI03:1,2013-03-10T08:00:00Z,29.4412,-92.0613,17.8,11111222 
WAVCIS,ioos:station:WAVCIS:CSI03:1,2013-03-10T09:00:00Z,29.4412,-92.0613,17.97,11111222 
WAVCIS,ioos:station:WAVCIS:CSI03:1,2013-03-10T10:00:00Z,29.4412,-92.0613,17.19,11111222 
WAVCIS,ioos:station:WAVCIS:CSI03:1,2013-03-10T11:00:00Z,29.4412,-92.0613,16.68,11111222 
WAVCIS,ioos:station:WAVCIS:CSI03:1,2013-03-10T12:00:00Z,29.4412,-92.0613,16.53,11111222 
WAVCIS,ioos:station:WAVCIS:CSI03:1,2013-03-10T13:00:00Z,29.4412,-92.0613,16.49,11111222 
WAVCIS,ioos:station:WAVCIS:CSI03:1,2013-03-10T14:00:00Z,29.4412,-92.0613,18.86,11111222 
WAVCIS,ioos:station:WAVCIS:CSI03:1,2013-03-10T15:00:00Z,29.4412,-92.0613,19.82,11111222 
WAVCIS,ioos:station:WAVCIS:CSI03:1,2013-03-10T16:00:00Z,29.4412,-92.0613,18.88,11111222 
WAVCIS,ioos:station:WAVCIS:CSI03:1,2013-03-10T17:00:00Z,29.4412,-92.0613,18.47,11111222 
WAVCIS,ioos:station:WAVCIS:CSI03:1,2013-03-10T18:00:00Z,29.4412,-92.0613,18.89,11111222 
WAVCIS,ioos:station:WAVCIS:CSI03:1,2013-03-10T19:00:00Z,29.4412,-92.0613,19.32,11111222 
WAVCIS,ioos:station:WAVCIS:CSI03:1,2013-03-10T20:00:00Z,29.4412,-92.0613,20.72,11111222 
WAVCIS,ioos:station:WAVCIS:CSI03:1,2013-03-10T21:00:00Z,29.4412,-92.0613,21.21,11111222 
WAVCIS,ioos:station:WAVCIS:CSI03:1,2013-03-10T22:00:00Z,29.4412,-92.0613,20.67,11111222 
WAVCIS,ioos:station:WAVCIS:CSI03:1,2013-03-10T23:00:00Z,29.4412,-92.0613,21.91,11111222 
WAVCIS,ioos:station:WAVCIS:CSI03:1,2013-03-11T00:00:00Z,29.4412,-92.0613,21.62,11111222 
WAVCIS,ioos:station:WAVCIS:CSI03:1,2013-03-11T01:00:00Z,29.4412,-92.0613,21.75,11111222 
WAVCIS,ioos:station:WAVCIS:CSI03:1,2013-03-11T02:00:00Z,29.4412,-92.0613,19.29,11111222 
WAVCIS,ioos:station:WAVCIS:CSI03:1,2013-03-11T03:00:00Z,29.4412,-92.0613,19.4,11111222 
WAVCIS,ioos:station:WAVCIS:CSI03:1,2013-03-11T04:00:00Z,29.4412,-92.0613,13.72,11111222 
WAVCIS,ioos:station:WAVCIS:CSI03:1,2013-03-11T05:00:00Z,29.4412,-92.0613,13.08,11111222 
WAVCIS,ioos:station:WAVCIS:CSI03:1,2013-03-11T06:00:00Z,29.4412,-92.0613,13.39,11111222 
WAVCIS,ioos:station:WAVCIS:CSI03:1,2013-03-11T07:00:00Z,29.4412,-92.0613,13.27,11111222 
WAVCIS,ioos:station:WAVCIS:CSI03:1,2013-03-11T08:00:00Z,29.4412,-92.0613,12.76,11111222 
WAVCIS,ioos:station:WAVCIS:CSI03:1,2013-03-11T09:00:00Z,29.4412,-92.0613,9.9,11111222 
WAVCIS,ioos:station:WAVCIS:CSI03:1,2013-03-11T10:00:00Z,29.4412,-92.0613,8.64,11111222 
WAVCIS,ioos:station:WAVCIS:CSI03:1,2013-03-11T11:00:00Z,29.4412,-92.0613,8.8,11111222 
WAVCIS,ioos:station:WAVCIS:CSI03:1,2013-03-11T12:00:00Z,29.4412,-92.0613,8.98,11111222 
WAVCIS,ioos:station:WAVCIS:CSI03:1,2013-03-11T13:00:00Z,29.4412,-92.0613,8.44,11111222 
WAVCIS,ioos:station:WAVCIS:CSI03:1,2013-03-11T14:00:00Z,29.4412,-92.0613,8.4,11111222 
WAVCIS,ioos:station:WAVCIS:CSI03:1,2013-03-11T15:00:00Z,29.4412,-92.0613,8.53,11111222 
WAVCIS,ioos:station:WAVCIS:CSI03:1,2013-03-11T16:00:00Z,29.4412,-92.0613,8.99,11111222 
WAVCIS,ioos:station:WAVCIS:CSI03:1,2013-03-11T17:00:00Z,29.4412,-92.0613,10.02,11111222 
WAVCIS,ioos:station:WAVCIS:CSI03:1,2013-03-11T18:00:00Z,29.4412,-92.0613,10.69,11111222 
WAVCIS,ioos:station:WAVCIS:CSI03:1,2013-03-11T19:00:00Z,29.4412,-92.0613,11.19,11111222 
WAVCIS,ioos:station:WAVCIS:CSI03:1,2013-03-11T20:00:00Z,29.4412,-92.0613,11.82,11111222 
WAVCIS,ioos:station:WAVCIS:CSI03:1,2013-03-11T21:00:00Z,29.4412,-92.0613,12.54,11111222 
WAVCIS,ioos:station:WAVCIS:CSI03:1,2013-03-11T22:00:00Z,29.4412,-92.0613,12.98,11111222 
WAVCIS,ioos:station:WAVCIS:CSI03:1,2013-03-11T23:00:00Z,29.4412,-92.0613,13.45,11111222 
WAVCIS,ioos:station:WAVCIS:CSI03:1,2013-03-12T00:00:00Z,29.4412,-92.0613,13.49,11111222 
WAVCIS,ioos:station:WAVCIS:CSI03:1,2013-03-12T01:00:00Z,29.4412,-92.0613,13.5,11111222 
WAVCIS,ioos:station:WAVCIS:CSI03:1,2013-03-12T02:00:00Z,29.4412,-92.0613,13.6,11111222 
WAVCIS,ioos:station:WAVCIS:CSI03:1,2013-03-12T03:00:00Z,29.4412,-92.0613,13.43,11111222 
WAVCIS,ioos:station:WAVCIS:CSI03:1,2013-03-12T04:00:00Z,29.4412,-92.0613,12.89,11111222 